Sheringham Point, British Columbia

10:43 PM PDT on April 24, 2017 (GMT -0700)
Sheringham Point

Weather History for CWSP - November, 2012

Change the Weather History Date:

Friday, November 9, 2012

  Actual Average Record
Temperature  
Mean Temperature 42 °F -  
Max Temperature 46 °F - - ()
Min Temperature 39 °F - - ()
Degree Days  
Heating Degree Days 22    
Moisture  
Dew Point 29 °F    
Average Humidity 57    
Maximum Humidity 73    
Minimum Humidity 34    
Precipitation  
Precipitation 0.00 in - - ()
Sea Level Pressure  
Sea Level Pressure 29.92 in    
Wind  
Wind Speed 5 mph ()    
Max Wind Speed 16 mph    
Max Gust Speed -    
T = Trace of Precipitation, MM = Missing Value Source: Averaged Metar Reports

Daily Weather History Graph

Daily Weather History Graph

Search for Another Location

Airport or City:

Trip Planner

Search our weather history database for the weather conditions in past years. The results will help you decide how hot, cold, wet, or windy it might be!

Date:

Astronomy

Nov. 09, 2012 Rise Set
Actual Time 7:14 AM PST 4:43 PM PST
Civil Twilight 6:41 AM PST 5:17 PM PST
Nautical Twilight 6:03 AM PST 5:54 PM PST
Astronomical Twilight 5:27 AM PST 6:31 PM PST
Moon 1:58 AM PST (11/9) 2:18 PM PST (11/9)
Length of Visible Light 10h 35m
Length of Day
9h 28m
Waning Crescent, 22% of the Moon is Illuminated
Nov 9
Waning Crescent
Nov 13
New
Nov 20
First Quarter
Nov 28
Full
Dec 6
Last Quarter

Hourly Weather History & Observations

Time (PST) Temp. Windchill Dew Point Humidity Pressure Visibility Wind Dir Wind Speed Gust Speed Precip Events Conditions
12:00 AM 43.5 °F 41.9 °F 33.1 °F 67% 29.89 in - East 3.5 mph - N/A   Unknown
1:00 AM 42.3 °F 40.5 °F 31.5 °F 66% 29.88 in - ENE 3.5 mph - N/A   Unknown
2:00 AM 41.9 °F - 33.8 °F 73% 29.88 in - East 1.2 mph - N/A   Unknown
3:00 AM 42.4 °F 39.6 °F 29.5 °F 60% 29.88 in - ENE 4.6 mph - N/A   Unknown
4:00 AM 42 °F - 29 °F 49% 29.88 in - West 1.2 mph - -  
4:00 AM 42.1 °F - 29.3 °F 61% 29.88 in - West 1.2 mph - N/A   Unknown
5:00 AM 42.6 °F 39.0 °F 27.9 °F 56% 29.89 in - ENE 5.8 mph - N/A   Unknown
6:00 AM 42.6 °F 39.0 °F 30.2 °F 61% 29.89 in - ENE 5.8 mph - N/A   Unknown
7:00 AM 42.3 °F 38.6 °F 27.9 °F 57% 29.90 in - East 5.8 mph - N/A   Unknown
8:00 AM 42.3 °F 39.4 °F 30.0 °F 62% 29.91 in - East 4.6 mph - N/A   Unknown
9:00 AM 41.4 °F 38.4 °F 32.9 °F 72% 29.92 in - East 4.6 mph - N/A   Unknown
10:00 AM 45 °F - 28 °F 38% 29.92 in - SE 5.8 mph - -  
10:00 AM 44.8 °F 41.6 °F 27.9 °F 52% 29.92 in - SE 5.8 mph - N/A   Unknown
11:00 AM 46.2 °F 41.2 °F 25.5 °F 44% 29.92 in - East 10.4 mph - N/A   Unknown
12:00 PM 45.1 °F 39.9 °F 29.1 °F 54% 29.92 in - SE 10.4 mph - N/A   Unknown
1:00 PM 45.3 °F 39.3 °F 27.9 °F 51% 29.91 in - ESE 12.7 mph - N/A   Unknown
2:00 PM 45.0 °F 38.5 °F 29.7 °F 55% 29.91 in - ESE 13.8 mph - N/A   Unknown
3:00 PM 45.1 °F 38.1 °F 30.7 °F 57% 29.90 in - ESE 16.1 mph - N/A   Unknown
4:00 PM 46 °F - 27 °F 34% 29.90 in - ESE 16.1 mph - -  
4:00 PM 45.7 °F 38.8 °F 26.8 °F 48% 29.90 in - ESE 16.1 mph - N/A   Unknown
5:00 PM 43.0 °F 39.5 °F 27.5 °F 54% 29.92 in - East 5.8 mph - N/A   Unknown
6:00 PM 42.1 °F 39.2 °F 26.8 °F 55% 29.94 in - ENE 4.6 mph - N/A   Unknown
7:00 PM 40.8 °F 37.8 °F 28.2 °F 61% 29.94 in - NE 4.6 mph - N/A   Unknown
8:00 PM 40.1 °F 36.9 °F 28.8 °F 64% 29.95 in - NE 4.6 mph - N/A   Unknown
9:00 PM 40.5 °F 37.3 °F 28.9 °F 64% 29.96 in - NE 4.6 mph - N/A   Unknown
10:00 PM 40 °F - 28 °F 52% 29.97 in - NE 4.6 mph - -  
10:00 PM 39.7 °F 36.5 °F 28.4 °F 64% 29.97 in - NE 4.6 mph - N/A   Unknown
11:00 PM 39.6 °F 37.4 °F 28.0 °F 63% 29.98 in - East 3.5 mph - N/A   Unknown